Location: Newark
(45.4422°N, 16.2769°E)
Time: 08:32:41
(UTC+00:00)

Vanguard 2 - Pass Details

Date: 15 December 2019
Orbit: 553 x 2938 km, 32.9° (Epoch: 24 January)

Event Time Altitude Azimuth Distance (km) Brightness Sun altitude
Rises 03:01:07 0° 268° (W) 6,272 - -35.1°
Reaches altitude 10° 03:05:12 10° 263° (W) 5,464 - -34.4°
Exits shadow 03:15:36 39° 234° (SW) 3,874 10.6 -32.6°
Maximum altitude 03:21:04 47° 198° (SSW) 3,575 10.6 -31.6°
Drops below altitude 10° 03:36:22 10° 132° (SE) 5,268 12.4 -29.0°
Sets 03:40:15 0° 126° (SE) 6,038 13.0 -28.3°
